Location: Chilham
(51.2333°N, 0.9667°E)
Time: 05:06:00
(UTC+00:00)

Daily predictions for brighter satellites

Satellite Brightness Start Highest point End
(mag) Time Altitude Azimuth Time Altitude Azimuth Time Altitude Azimuth
SL-4 R/B 2.8 00:02:10 10° W 00:05:49 31° SSW 00:06:37 29° S
Cosmos 1825 1.9 00:04:51 35° S 00:06:09 72° E 00:09:36 10° NNE
Cosmos 2154 Rocket 4.2 00:07:15 22° S 00:11:24 64° E 00:17:38 10° NNE
Cosmos 2297 Rocket 2.3 00:09:02 18° SW 00:13:19 79° WNW 00:19:00 10° NNE
Okean 1 Rocket 3.0 00:09:18 10° NNW 00:13:41 85° WSW 00:16:03 27° S
NOSS 3-2 (A) 4.3 00:12:22 20° SSE 00:14:51 29° ESE 00:19:58 10° ENE
Cosmos 2219 3.9 00:14:01 21° SSE 00:17:09 39° ESE 00:22:20 10° NE
Aureole 1 Rocket 4.2 00:17:04 19° SE 00:18:42 26° E 00:22:23 10° NE
PSLV R/B 3.8 00:14:43 10° N 00:18:53 58° WNW 00:21:22 23° SW
ATLAS CENTAUR R/B 4.3 00:21:27 10° NW 00:23:13 13° NNW 00:25:02 10° NNE
Cosmos 1354 Rocket 4.3 00:25:11 19° SW 00:29:04 66° WNW 00:34:22 10° NNE
Cosmos 1606 4.4 00:27:23 10° NNE 00:30:23 25° ENE 00:33:23 10° SE
Resurs 1-4 Rocket 4.4 00:30:13 10° NE 00:33:07 15° E 00:36:00 10° ESE
H-2A R/B 2.2 00:29:13 10° N 00:33:27 63° WNW 00:35:54 23° SW
Cosmos 2084 Rocket 3.3 00:31:32 20° SW 00:34:25 88° NW 00:38:32 10° NE
Cosmos 1975 Rocket 3.8 00:37:42 20° SSE 00:40:21 45° E 00:44:34 10° NNE
Cosmos 292 Rocket 4.3 00:40:12 23° S 00:42:56 49° ESE 00:47:35 10° NNE
Cosmos 2263 Rocket 2.7 00:42:06 21° S 00:45:32 45° ESE 00:50:50 10° NE
BlueWalker 3 2.2 00:43:46 10° W 00:47:30 68° N 00:51:15 10° ENE
Orbus 7S? 3.0 00:45:43 10° WNW 00:48:23 66° NNE 00:51:44 10° ESE
BREEZE-M DEB (TANK) 3.8 00:45:42 10° WSW 00:48:46 72° S 00:57:27 10° E
Cosmos 1455 Rocket 3.0 00:45:41 10° NNW 00:50:09 83° W 00:52:57 22° S
Cosmos 332 Rocket 4.2 00:48:13 18° SW 00:51:44 57° WNW 00:56:35 10° NNE
Cosmos 2074 Rocket 4.4 00:49:56 19° SSW 00:54:25 56° WNW 01:00:33 10° N
Cosmos 1680 Rocket 3.9 00:51:12 10° NNW 00:56:23 62° ENE 01:01:32 10° SE
Cosmos 2341 Rocket 4.3 00:56:40 17° S 01:01:30 61° E 01:07:37 10° NNE
Cosmos 1818 3.6 00:56:42 10° NW 01:02:14 87° SW 01:07:42 10° SE
Helios 1A Rocket 2.6 01:02:09 21° SSE 01:04:36 86° WSW 01:08:26 10° NNW
Cosmos 1025 Rocket 3.3 01:02:30 22° SSW 01:05:08 57° WNW 01:09:24 10° N
USA 234 4.1 01:00:10 10° E 01:06:31 55° N 01:12:52 10° WNW
Cosmos 1461 3.8 01:06:44 20° SSE 01:08:39 32° ESE 01:12:08 10° ENE
COSMOS 2455 4.2 01:04:00 10° WSW 01:09:32 36° NW 01:15:06 10° NNE
Cosmos 990 Rocket 4.2 01:08:07 18° SW 01:11:53 63° WNW 01:17:00 10° NNE
TIMED 4.4 01:10:13 22° SSW 01:12:56 89° SE 01:17:17 10° NNE
CENTAUR R/B 2.6 01:11:48 15° SW 01:16:48 86° NW 01:24:12 10° NE
SL-19 R/B 3.5 01:13:46 10° NNE 01:16:50 84° ESE 01:18:11 28° SSW
COBE Rocket 4.5 01:12:05 10° NNE 01:17:09 56° E 01:21:15 16° S
In-Cosmos 22 Rocket 4.3 01:14:28 19° S 01:18:47 90° WNW 01:24:40 10° NNE
IDEFIX/ARIANE 42P 3.4 01:16:13 10° NNE 01:21:14 43° E 01:25:41 13° SSE
SL-16 R/B 2.8 01:17:33 10° NW 01:22:48 39° WSW 01:26:33 18° SSW
Cosmos 1869 3.0 01:23:34 10° NNW 01:27:18 78° W 01:29:53 19° S
Cosmos 1603 4.3 01:22:07 10° NNW 01:27:51 62° NE 01:33:31 10° SE
Cosmos 2237 Rocket 4.2 01:26:34 10° WNW 01:28:26 12° W 01:30:18 10° WSW
CZ-2C R/B 4.4 01:24:56 10° NNE 01:29:50 33° E 01:34:28 10° SSE
GEOS 3 Rocket 3.9 01:27:45 10° NE 01:32:54 65° NW 01:37:52 10° WSW
CZ-4C R/B 3.7 01:31:01 10° W 01:35:42 36° NNW 01:41:35 10° NE
Cosmos 2082 3.7 01:31:20 17° SSW 01:35:45 87° WNW 01:41:25 10° NNE
Cosmos 2218 Rocket 4.0 01:31:20 15° S 01:36:36 84° E 01:42:49 10° N
CZ-2D R/B 3.0 01:31:40 10° NNE 01:36:46 42° E 01:41:45 10° S
Cosmos 1943 3.1 01:31:18 10° NNW 01:36:57 82° WSW 01:42:34 10° SSE
Cosmos 2227 Rocket 3.2 01:32:12 10° WSW 01:37:31 40° NW 01:42:53 10° NNE
CZ-2C R/B 2.9 01:33:01 10° SSE 01:38:17 73° ENE 01:43:42 10° NNW
Cosmos 1437 Rocket 4.2 01:35:35 10° SSE 01:38:58 31° E 01:42:20 10° NNE
Cosmos 2366 rocket 4.0 01:37:03 15° S 01:42:23 87° WNW 01:48:39 10° N
Cosmos 372 Rocket 4.0 01:40:51 17° SSW 01:44:59 79° WNW 01:50:14 10° NNE
Cosmos 494 Rocket 4.4 01:40:49 10° NNW 01:46:03 65° ENE 01:51:16 10° SE
MOZ.5/SAFIR/RUBIN 5/SL-8 4.0 01:43:48 15° S 01:47:31 53° W 01:52:04 10° NNW
NPP 3.8 01:50:49 10° NNE 01:56:15 79° ESE 02:01:12 12° SSW
ADEOS II 3.0 01:53:11 10° NNE 01:58:12 44° E 02:03:11 10° S
Cosmos 2297 Rocket 4.2 01:53:58 10° W 01:58:17 22° NW 02:02:37 10° NNE
Cosmos 2228 3.2 01:55:50 10° NNW 02:00:06 57° W 02:03:53 12° S
Cosmos 2219 4.0 01:55:55 10° WSW 02:01:15 45° NW 02:06:39 10° NNE
Aureole 1 Rocket 4.1 01:58:23 11° WSW 02:01:39 34° NW 02:06:00 10° NNE
Cosmos 1544 Rocket 4.1 01:57:38 10° NNW 02:01:50 42° W 02:05:22 14° SSW
Cosmos 1937 Rocket 3.7 01:59:45 14° SW 02:04:17 66° WNW 02:09:32 10° NNE
Cosmos 1606 3.7 02:01:58 10° NNW 02:05:04 28° W 02:07:22 15° SW
NOSS 3-2 (A) 3.6 01:59:43 10° WSW 02:05:04 67° NW 02:11:35 10° NE
H-2A R/B 3.3 02:03:57 10° NNE 02:07:57 87° WNW 02:11:32 13° SSW
ALOS 3.8 02:04:38 10° NNE 02:08:46 31° E 02:12:52 10° SSE
Cosmos 1898 Rocket 4.1 02:04:35 12° SW 02:09:12 47° WNW 02:14:13 10° NNE
SL-16 R/B 2.9 02:04:11 10° SSE 02:10:23 70° ENE 02:16:36 10° NNW
Cosmos 2227 4.4 02:05:48 13° SSW 02:11:00 74° ESE 02:16:47 10° NNE
NOSS 3-2 (C) 3.3 02:06:42 13° SW 02:11:31 78° SE 02:17:55 10° NE
SL-8 Rocket 4.5 02:07:58 13° SW 02:13:22 49° WNW 02:19:24 10° N
Resurs 1-4 Rocket 2.2 02:08:24 10° NNE 02:13:42 85° ESE 02:19:00 10° SSW
Cosmos 1844 4.5 02:14:34 10° S 02:20:04 48° ESE 02:25:38 10° NE
Cosmos 1812 3.7 02:19:34 10° N 02:23:02 43° ENE 02:26:27 10° SSE
BlueWalker 3 2.1 02:22:09 10° WNW 02:25:53 72° NNE 02:29:38 10° E
Cosmos 2263 Rocket 3.1 02:24:20 10° WSW 02:29:34 39° NW 02:34:48 10° NNE
Cosmos 1727 Rocket 4.2 02:23:36 10° NNW 02:29:47 58° W 02:35:58 10° S
Cosmos 921 Rocket 3.1 02:30:03 10° NNW 02:34:13 56° WSW 02:38:18 10° S
COSMOS 2441 4.4 02:30:18 10° NNE 02:35:08 81° WNW 02:39:57 10° SSW
Cosmos 1606 Rocket 3.7 02:32:58 10° NNW 02:37:23 64° W 02:41:45 10° S
Cosmos 724 4.2 02:38:12 10° NW 02:44:00 74° SW 02:49:49 10° SSE
Cosmos 1461 3.7 02:43:01 10° WSW 02:46:45 39° NW 02:50:25 10° NNE
Cosmos 1536 Rocket 4.4 02:43:39 10° SW 02:47:47 37° WNW 02:51:55 10° N
Cosmos 1844 Rocket 2.8 02:42:59 10° SSW 02:48:35 83° ESE 02:54:11 10° NNE
USA 234 3.5 02:42:41 10° ESE 02:49:15 79° NNE 02:55:48 10° WNW
Cosmos 1726 Rocket 3.7 02:48:10 10° NNW 02:52:33 59° W 02:56:53 10° S
Cosmos 2058 3.6 02:48:51 10° S 02:52:47 52° E 02:56:47 10° NNE
Cosmos 1238 Rocket 3.0 02:51:20 10° N 02:54:51 59° ENE 02:57:56 10° SSE
